Location: Unspecified
(48.7670°N, 0.0000°E)
Time: 20:36:59
(UTC+00:00)

Vanguard 2 Rocket - Pass Details

Date: 20 June 2019
Orbit: 554 x 3326 km, 32.9° (Epoch: 16 July)

Event Time Altitude Azimuth Distance (km) Brightness Sun altitude
Rises 22:26:08 0° 229° (SW) 4,354 10.2 -14.7°
Reaches altitude 10° 22:28:55 10° 220° (SW) 3,705 9.7 -14.9°
Maximum altitude 22:37:50 35° 159° (SSE) 3,098 9.0 -15.4°
Drops below altitude 10° 22:51:39 10° 103° (ESE) 5,763 10.7 -16.1°
Sets 22:57:21 0° 97° (E) 7,070 11.2 -16.4°
